[[{"header":{"parameterUnit":"m.s-1","parameterCategory":1,"la1":30.2991,"la2":30.254,"lo1":-89.0895,"lo2":-89.0444,"dy":0.0017,"dx":0.0017,"nx":28,"ny":28,"refTime":"2023-07-21T03:00:00:Z","depth":0,"parameterNumber":2,"parameterNumberName":"U-component_of_WINDS"},"data":[0,0,0,0,0,0,0,0,0,0,0,0,0,0,0,0,0,0,0,0,0,0,0,0,0,0,0,0,0,0,0,0,0,0,0,0,0,0,0,0,0,0,0,0,0,0,0,0,0,0,0,0,0,0,0,0,0,0,2.2733,2.2733,0,2.2791,2.2792,2.2793,2.2772,2.277,2.2769,2.2768,2.2835,2.2838,2.2841,0,0,0,0,0,0,0,0,0,0,0,0,0,2.261,2.2612,2.2733,2.2733,2.2734,2.2791,2.2792,2.2793,2.2772,2.277,2.2769,2.2767,2.2834,2.2837,2.2841,0,0,0,0,0,0,0,0,0,0,0,0,0,2.2665,2.2613,2.2733,2.273,2.2731,2.2791,2.2792,2.2793,2.2772,2.277,2.2768,2.2766,2.2833,2.2837,2.2842,2.291,0,0,2.2855,2.2857,0,0,0,0,0,0,0,0,2.2662,2.267,2.273,2.2731,2.2731,2.2772,2.2773,2.2832,2.2773,2.2757,2.2768,2.2765,2.2816,2.2822,2.2837,2.2913,2.2916,2.2856,2.2859,2.2861,2.2862,0,0,0,0,0,0,0,2.2658,2.2667,2.2756,2.2731,2.2732,2.2729,2.2735,2.2784,2.2797,2.2758,2.2756,2.2763,2.2816,2.2833,2.2839,2.2917,2.2856,2.286,2.2863,2.2864,2.3054,2.3056,0,0,0,0,0,0,2.2653,2.2664,2.2754,2.2758,2.2691,2.2733,2.2739,2.2761,2.2796,2.28,2.2765,2.2762,2.2826,2.2834,2.2841,2.2925,2.286,2.2865,2.2867,2.3052,2.3054,2.3057,0,0,0,0,0,0,2.2651,2.2662,2.2752,2.2711,2.2722,2.2737,2.2762,2.2763,2.278,2.2802,2.2805,2.278,2.2825,2.2835,2.2893,2.2927,2.2867,2.2871,2.3049,2.3052,2.3056,2.3092,0,0,0,0,0,0,2.2647,2.2661,2.2685,2.2711,2.2724,2.28,2.2764,2.2766,2.2787,2.2784,2.2816,2.282,2.2824,2.2886,2.2897,2.2932,2.2875,2.3046,2.305,2.3055,2.3088,2.3097,2.3104,0,0,0,0,0,2.2643,2.2694,2.2686,2.2697,2.2754,2.2802,2.281,2.2812,2.279,2.2816,2.283,2.2819,2.2921,2.2892,2.2905,2.2941,2.3044,2.3049,2.3054,2.3085,2.3095,2.3104,0,0,0,0,0,0,2.2673,2.2697,2.2689,2.275,2.2774,2.2799,2.2831,2.2823,2.2855,2.2851,2.2855,2.2862,2.2923,2.2938,2.2905,2.3011,2.298,2.2988,2.2998,2.3008,2.3016,2.3012,2.2878,0,0,0,0,0,2.2687,2.2721,2.2741,2.2793,2.2805,2.2816,2.2837,2.2837,2.2863,2.2874,2.2892,2.292,2.2959,2.2984,2.3021,2.309,2.3098,2.3121,2.3129,2.3136,2.3143,2.3183,2.3194,2.3074,2.3074,2.3074,0,0,2.2715,2.2733,2.2755,2.28,2.2818,2.2857,2.2825,2.2867,2.2896,2.2881,2.2937,2.2951,2.2983,2.3047,2.3077,2.3062,2.3178,2.3142,2.3147,2.3151,2.319,2.3201,2.3211,2.3077,2.3077,2.3076,0,0,2.2788,2.2803,2.2849,2.2868,2.2896,2.2903,2.2914,2.294,2.2949,2.3004,2.2994,2.303,2.3096,2.312,2.314,2.3222,2.3214,2.3235,2.3276,2.3315,2.3325,2.3333,2.3364,2.3375,2.3241,2.3242,2.3242,0,2.2821,2.2875,2.2874,2.2916,2.2938,2.2923,2.2971,2.2991,2.303,2.3047,2.3029,2.3112,2.3132,2.3203,2.3223,2.3239,2.3254,2.3231,2.3323,2.3331,2.3339,2.3369,2.3381,2.3244,2.3244,2.3243,2.3243,0,2.2916,2.2954,2.2988,2.3025,2.305,2.3095,2.3102,2.3128,2.3126,2.3135,2.3194,2.3217,2.3259,2.3276,2.3274,2.3347,2.3337,2.3321,2.329,2.3353,2.3382,2.3393,2.3247,2.3247,2.3246,2.3245,0,0,2.3009,2.3044,2.3057,2.3074,2.3104,2.3136,2.3181,2.322,2.3243,2.3271,2.3312,2.3368,2.3353,2.3377,2.3378,2.3412,2.3478,2.3392,2.3393,2.3409,2.3563,2.3576,2.3589,2.3472,2.3474,2.3476,2.3561,0,2.3085,2.3163,2.3163,2.3236,2.3273,2.326,2.33,2.3325,2.3335,2.337,2.3383,2.3424,2.34,2.3414,2.3447,2.3463,2.3509,2.3457,2.3513,2.3514,2.3506,2.3603,2.3617,2.3696,2.3571,2.3573,2.3575,0,2.3184,2.3214,2.329,2.3316,2.3332,2.3367,2.3404,2.3436,2.3465,2.3471,2.3497,2.3493,2.3543,2.3509,2.3579,2.3543,2.3566,2.3577,2.358,2.3587,2.3549,2.3615,2.3721,2.3733,2.3592,2.359,2.3589,0,2.3248,2.3307,2.336,2.3375,2.3406,2.3432,2.3447,2.3473,2.3497,2.353,2.3546,2.3584,2.3606,2.3638,2.3646,2.362,2.3716,2.3683,2.3725,2.3725,2.3747,2.3746,2.386,2.3759,2.3759,2.3758,2.3758,0,2.3334,2.3381,2.3389,2.3422,2.3476,2.3476,2.353,2.3543,2.3567,2.3604,2.3596,2.3632,2.364,2.3678,2.3685,2.3743,2.3752,2.376,2.3762,2.3762,2.3761,2.3778,2.3774,2.3761,2.3761,2.376,2.376,0,2.3414,2.3421,2.3478,2.3503,2.351,2.3549,2.3571,2.3605,2.3614,2.3661,2.3673,2.3689,2.3733,2.3744,2.3797,2.3802,2.3871,2.3867,2.3861,2.3862,2.3903,2.39,2.4034,2.4053,2.3938,2.3939,2.3939,0,2.347,2.3506,2.3534,2.3557,2.3572,2.361,2.3634,2.3637,2.3663,2.3699,2.3728,2.3771,2.3806,2.3878,2.3896,2.3938,2.3936,2.398,2.3942,2.3942,2.3939,2.3937,2.3942,2.3988,2.3989,2.399,2.3991,0,2.3568,2.3569,2.3603,2.3638,2.3667,2.3695,2.3723,2.3743,2.375,2.378,2.3824,2.3851,2.3905,2.3949,2.3991,2.4009,2.4002,2.4002,2.4014,2.4016,2.4012,2.4016,2.3883,2.3999,2.3998,2.3998,2.3997,2.3997,2.3639,2.3671,2.3696,2.3734,2.3755,2.378,2.3813,2.3826,2.3862,2.3905,2.3905,2.3954,2.3984,2.4039,2.4059,2.4099,2.4086,2.4103,2.4108,2.4113,2.4117,2.4003,2.4107,2.4107,2.4106,2.4106,2.4106,0,2.3739,2.3754,2.3789,2.3827,2.3858,2.3845,2.3875,2.3903,2.3945,2.3972,2.4006,2.4058,2.4101,2.4122,2.4165,2.4193,2.4192,2.4205,2.4204,2.4209,2.4126,2.4112,2.4206,2.4206,2.4206,2.4206,2.4206,2.4205,2.3794,2.3848,2.3853,2.3918,2.3934,2.398,2.3998,2.4023,2.4045,2.4102,2.4137,2.4149,2.4175,2.422,2.4259,2.4265,2.4282,2.4297,2.4301,2.4224,2.4214,2.4205,2.4191,2.4301,2.4301,2.4381,2.4382,2.4382]},{"header":{"parameterUnit":"m.s-1","parameterCategory":1,"la1":30.2991,"la2":30.254,"lo1":-89.0895,"lo2":-89.0444,"dy":0.0017,"dx":0.0017,"nx":28,"ny":28,"refTime":"2023-07-21T03:00:00:Z","depth":0,"parameterNumber":3,"parameterNumberName":"V-component_of_WINDS"},"data":[0,0,0,0,0,0,0,0,0,0,0,0,0,0,0,0,0,0,0,0,0,0,0,0,0,0,0,0,0,0,0,0,0,0,0,0,0,0,0,0,0,0,0,0,0,0,0,0,0,0,0,0,0,0,0,0,0,0,0.5115,0.5115,0,0.5085,0.5085,0.5085,0.5064,0.5064,0.5063,0.5063,0.5031,0.5031,0.503,0,0,0,0,0,0,0,0,0,0,0,0,0,0.5151,0.5151,0.5115,0.5115,0.5115,0.5086,0.5085,0.5085,0.5064,0.5064,0.5063,0.5063,0.5032,0.5031,0.503,0,0,0,0,0,0,0,0,0,0,0,0,0,0.513,0.5151,0.5115,0.5101,0.5099,0.5086,0.5085,0.5085,0.5064,0.5064,0.5063,0.5063,0.5032,0.5031,0.503,0.5028,0,0,0.5027,0.5026,0,0,0,0,0,0,0,0,0.5131,0.5129,0.5103,0.5102,0.51,0.5078,0.5086,0.5066,0.5064,0.5077,0.5063,0.5063,0.5047,0.5045,0.504,0.5027,0.5025,0.5027,0.5026,0.5025,0.5025,0,0,0,0,0,0,0,0.5133,0.513,0.5103,0.5103,0.5101,0.5095,0.5091,0.5082,0.5064,0.5076,0.5074,0.5071,0.5046,0.5041,0.5039,0.5025,0.5027,0.5026,0.5025,0.5025,0.5006,0.5006,0,0,0,0,0,0,0.5137,0.5131,0.5104,0.5103,0.5115,0.5094,0.5091,0.5085,0.5064,0.506,0.5072,0.507,0.5043,0.504,0.5038,0.5033,0.5025,0.5024,0.5024,0.5006,0.5006,0.5006,0,0,0,0,0,0,0.5138,0.5135,0.5106,0.5116,0.5112,0.5094,0.5088,0.5085,0.5079,0.506,0.5057,0.507,0.5042,0.5039,0.503,0.5031,0.5024,0.5023,0.5006,0.5006,0.5006,0.5024,0,0,0,0,0,0,0.5139,0.5135,0.5135,0.5117,0.5112,0.51,0.5088,0.5084,0.5078,0.5076,0.5058,0.5054,0.5042,0.5032,0.5029,0.503,0.5022,0.5006,0.5006,0.5006,0.5023,0.5024,0.5026,0,0,0,0,0,0.514,0.5141,0.5135,0.5132,0.5111,0.51,0.5097,0.5083,0.5078,0.5077,0.5065,0.5055,0.5032,0.5031,0.5028,0.5028,0.5006,0.5006,0.5006,0.5022,0.5024,0.5026,0,0,0,0,0,0,0.516,0.5139,0.5132,0.5127,0.5115,0.5096,0.5095,0.5086,0.5075,0.5074,0.5056,0.5052,0.5045,0.5036,0.5036,0.5024,0.5017,0.5017,0.503,0.5032,0.5033,0.5036,0.5021,0,0,0,0,0,0.5164,0.5157,0.5139,0.5136,0.5131,0.5114,0.5108,0.5098,0.5086,0.508,0.5067,0.5055,0.5044,0.5038,0.5027,0.5021,0.5016,0.502,0.5021,0.5022,0.5022,0.5016,0.5017,0.5007,0.5007,0.5007,0,0,0.5172,0.516,0.5156,0.514,0.513,0.5122,0.511,0.5103,0.5096,0.5079,0.507,0.5059,0.5044,0.5036,0.5032,0.5028,0.5023,0.5023,0.5024,0.5023,0.5017,0.5018,0.5018,0.5008,0.5008,0.5008,0,0,0.5183,0.5173,0.5169,0.5159,0.5144,0.5132,0.5131,0.5113,0.5106,0.5096,0.5082,0.5074,0.5057,0.5046,0.5038,0.5042,0.5032,0.5039,0.5046,0.5041,0.5041,0.5042,0.5042,0.5042,0.5039,0.5039,0.5039,0,0.5195,0.5183,0.5168,0.5161,0.5154,0.5138,0.5133,0.5123,0.5105,0.51,0.5096,0.5072,0.5061,0.5049,0.505,0.5045,0.5042,0.5041,0.5043,0.5043,0.5043,0.5043,0.5043,0.504,0.504,0.5039,0.5039,0,0.5197,0.5189,0.5188,0.5171,0.5163,0.5157,0.514,0.5134,0.5124,0.5113,0.5102,0.5087,0.5072,0.5069,0.506,0.5055,0.5053,0.5046,0.5039,0.5045,0.5045,0.5045,0.5041,0.5041,0.504,0.504,0,0,0.522,0.5194,0.5194,0.5185,0.5166,0.5159,0.5151,0.5137,0.5131,0.5119,0.5111,0.5096,0.5089,0.508,0.5069,0.5064,0.5066,0.5057,0.5057,0.5059,0.5059,0.5064,0.5064,0.5059,0.5059,0.5059,0.5059,0,0.5227,0.5214,0.5199,0.519,0.5182,0.5166,0.5159,0.5146,0.5134,0.5124,0.5111,0.51,0.5093,0.5087,0.5081,0.5067,0.5066,0.5067,0.5051,0.505,0.5055,0.5064,0.5069,0.507,0.5059,0.5059,0.5059,0,0.5233,0.5221,0.5212,0.5192,0.5188,0.5182,0.5167,0.5158,0.5142,0.5134,0.5123,0.5111,0.5101,0.5095,0.5079,0.508,0.5072,0.5064,0.5064,0.5061,0.5055,0.5061,0.5071,0.5071,0.5059,0.5059,0.5059,0,0.5249,0.5231,0.5222,0.5215,0.5193,0.5189,0.5179,0.5163,0.5154,0.5141,0.5135,0.512,0.5112,0.51,0.5084,0.5081,0.5069,0.5062,0.5061,0.5061,0.5059,0.506,0.5067,0.5055,0.5055,0.5055,0.5055,0,0.5258,0.5252,0.5229,0.5224,0.5216,0.5199,0.5192,0.518,0.5166,0.5157,0.5142,0.5134,0.5113,0.5101,0.5088,0.5076,0.5073,0.5065,0.5062,0.5066,0.5067,0.5061,0.506,0.5055,0.5055,0.5055,0.5055,0,0.5274,0.5259,0.5248,0.5227,0.5222,0.5217,0.5199,0.5192,0.5179,0.5168,0.5164,0.5144,0.513,0.5112,0.5092,0.5083,0.5072,0.5067,0.5078,0.5076,0.5075,0.5075,0.5079,0.5077,0.5067,0.5067,0.5067,0,0.5281,0.5276,0.5254,0.5247,0.5238,0.5227,0.5219,0.5201,0.5193,0.5173,0.5168,0.5153,0.514,0.5117,0.51,0.5084,0.5078,0.508,0.5076,0.508,0.5077,0.5077,0.5076,0.5082,0.5082,0.5082,0.5082,0,0.5293,0.5285,0.5274,0.5259,0.5249,0.5237,0.5224,0.5219,0.5198,0.5189,0.5174,0.5164,0.5143,0.5127,0.5109,0.5097,0.5086,0.5084,0.5082,0.5087,0.5093,0.5088,0.508,0.5084,0.5084,0.5083,0.5083,0.5083,0.5303,0.5298,0.5281,0.5269,0.5257,0.5245,0.5237,0.5223,0.5211,0.5193,0.5183,0.5168,0.515,0.5125,0.5113,0.51,0.5096,0.5095,0.5094,0.5094,0.5095,0.5095,0.5097,0.5097,0.5097,0.5097,0.5097,0,0.5313,0.5302,0.5291,0.5273,0.5262,0.5253,0.5237,0.5229,0.5216,0.5201,0.5188,0.517,0.5155,0.5136,0.5118,0.5111,0.5106,0.5107,0.5107,0.5105,0.51,0.5102,0.5112,0.5112,0.5112,0.5112,0.5112,0.5112,0.5318,0.5307,0.5297,0.528,0.5268,0.5255,0.5246,0.5234,0.5222,0.5203,0.519,0.5178,0.516,0.5141,0.5126,0.512,0.5114,0.5118,0.5111,0.5107,0.5105,0.5104,0.5106,0.5117,0.5117,0.5116,0.5116,0.5116]}]]